Back to catalog

TELKOM 2

AliveCommunicationsGEO
NORAD 28902·PAYLOAD·🇮🇩 Indonesia

Launched Nov 16, 2005 from Guiana Space Centre

Loading…

TLE

FreshSource: Space-Track

Epoch: Sep 14, 2026, 13:21 UTC

1 28902U 05046A   26257.55651081 -.00000022  00000-0  00000-0 0  9994
2 28902   5.0037  74.7760 0007305 190.0118 195.3181  0.99144751 76128

Track TELKOM 2 in real time with AllMySat

Download on the App Store